This demonstration page uses our WeatherBlox Daily Observations layout. Learn more.

Left ArrowRight Arrow

34.74481, -87.66753

Hourly Observations for March 2, 2018

Temp ( °F °C ) Dew Point ( °F °C ) Humidity (%) Winds ( mph kmh ) Pressure ( in mb ) Visibility ( mi km ) Precip ( " mm )
12:53 am 00:53 Clear 49 9.4 38 3.3 66 66 N 6 9 30.25 1024 10 16 0.00 0.00
1:53 am 01:53 Clear 48 8.9 37 2.8 66 66 N 9 15 30.26 1025 10 16 0.00 0.00
2:53 am 02:53 Clear 47 8.3 36 2.2 66 66 VRB 5 7 30.26 1025 10 16 0.00 0.00
3:53 am 03:53 Clear 45 7.2 36 2.2 71 71 N 5 7 30.28 1025 10 16 0.00 0.00
4:53 am 04:53 Clear 44 6.7 34 1.1 68 68 N 6 9 30.29 1026 10 16 0.00 0.00
5:53 am 05:53 Clear 43 6.1 33 0.6 68 68 N 5 7 30.31 1027 10 16 0.00 0.00
6:53 am 06:53 Sunny 43 6.1 33 0.6 68 68 NNW 7 11 30.35 1028 10 16 0.00 0.00
7:53 am 07:53 Sunny 45 7.2 34 1.1 66 66 N 7 11 30.37 1029 10 16 0.00 0.00
8:53 am 08:53 Sunny 47 8.3 31 -0.6 54 54 NE 12 19 30.38 1029 10 16 0.00 0.00
9:53 am 09:53 Sunny 49 9.4 31 -0.6 50 50 NE 9 15 30.39 1029 10 16 0.00 0.00
10:53 am 10:53 Sunny 52 11.1 28 -2.2 40 40 NE 10 17 30.40 1030 10 16 0.00 0.00
11:53 am 11:53 Sunny 54 12.2 30 -1.1 40 40 NNE 12 19 30.38 1029 10 16 0.00 0.00
12:53 pm 12:53 Sunny 56 13.3 30 -1.1 37 37 NNE 10 17 30.36 1028 10 16 0.00 0.00
1:53 pm 13:53 Sunny 57 13.9 31 -0.6 37 37 NNE 10 17 30.34 1027 10 16 0.00 0.00
2:53 pm 14:53 Sunny 58 14.4 29 -1.7 33 33 NNE 10 17 30.33 1027 10 16 0.00 0.00
3:53 pm 15:53 Sunny 58 14.4 29 -1.7 33 33 NE 5 7 30.32 1027 10 16 0.00 0.00
4:53 pm 16:53 Sunny 57 13.9 30 -1.1 36 36 NNE 7 11 30.32 1027 10 16 0.00 0.00
5:53 pm 17:53 Clear 53 11.7 30 -1.1 41 41 NE 5 7 30.32 1027 10 16 0.00 0.00
6:53 pm 18:53 Clear 52 11.1 31 -0.6 45 45 NNE 5 7 30.33 1027 10 16 0.00 0.00
7:53 pm 19:53 Clear 51 10.6 30 -1.1 44 44 NNE 6 9 30.35 1028 10 16 0.00 0.00
8:53 pm 20:53 Clear 48 8.9 29 -1.7 48 48 ENE 6 9 30.34 1027 10 16 0.00 0.00
9:53 pm 21:53 Clear 47 8.3 29 -1.7 50 50 NE 6 9 30.34 1027 10 16 0.00 0.00
10:53 pm 22:53 Clear 47 8.3 28 -2.2 48 48 ENE 7 11 30.34 1027 10 16 0.00 0.00
11:53 pm 23:53 Clear 46 7.8 28 -2.2 50 50 NE 8 13 30.34 1028 10 16 0.00 0.00

Powered by AerisWeather